Starlink 1973

operational
NORAD ID: 47628 Int'l Des: 2021-012 Owner: SPXS Country: US Constellation: starlink
LEOCIRCULARSTARLINK_TYPE

Über Starlink 1973

Beschreibung wird geladen...

Live-Position

3D-Globus wird geladen...

Nächste Überflüge

Höhenverlauf

Altitude vs Time

uPlot chart will show altitude changes over time

Zweizeiliger Elementsatz

1 47628U 21012J 25302.30903881 .00005228 00000-0 36980-3 0 9993
2 47628 53.0548 301.4001 0001567 83.5688 276.5479 15.06379062260186
Epoch: 29. Okt. 2025 • Age: 11 hours

Aktueller Status

Höhe 566.6 km
Geschwindigkeit 7.58 km/s
Subsatellitenpunkt -52.66°S, 90.55°W
Startdatum 16. Feb. 2021
Alter 4.6 years
Typ internet

Technische Details

Klassifizierung Payload
Masse 260.00 kg
Trockenmasse 248.00 kg
Gesamtmasse 260.00 kg
Länge 0.20 m
Durchmesser 2.80 m
Spannweite 9.00 m
Form Box + pan
Hersteller SPXS
Bus-Typ Starlink
Phasenstatus In Orbit
Besitzer/Staat SPXS/US

Große Konstellationen

Loading constellations...